ANDOYA current weather conditions

sailwx.info

Wind from 220 at 14 knots

Air temperature 5.0° C
Visibility: greater than 5.4 NM
Dewpoint 3.0° C
Present weather: Light rain showers.

Last reported at 2014-Nov-26 04:20 UTC.
Time now 2014-Nov-26 06:35 UTC

Location: N 69°18' E 016°09'.
View on Google Maps.

See reports from other nearby stations

  
Tides and Currents Weather Stations Pressure Air Temp Water Temp Dewpoint Dewpoint Depression Visibility Wind Speed Wind Dir Waves Ship Positions
date/time (UTC)wind fromknots sea level pressurealtimeterstation pressurevisibilityair tempwater tempwave heightnotes
2014-Nov-26 04:20 220 14 5.4 5.0 Light rain showers.
2014-Nov-26 03:50 210 9 5.4 5.0 Light rain showers.
2014-Nov-26 03:20 220 8 5.4 4.0 Showers in the vicinity.
2014-Nov-26 02:50 200 11 5.4 4.0 Showers in the vicinity.
2014-Nov-26 01:50 200 17 5.4 5.0 Light rain showers.
2014-Nov-26 00:50 190 9 5.4 5.0 Showers in the vicinity.
2014-Nov-25 23:50 230 18 gusting 34 5.4 6.0 Light rain showers.
2014-Nov-25 22:50 250 24 gusting 35 5.4 6.0 Light rain showers.
2014-Nov-25 21:50 180 12 5.4 5.0 Light rain showers.
2014-Nov-25 20:50 190 11 5.4 5.0 Light rain showers.
2014-Nov-25 19:50 190 12 5.4 4.0 Light rain showers.
2014-Nov-25 18:50 170 11 5.4 4.0 Showers in the vicinity.
2014-Nov-25 17:50 200 12 5.4 4.0 Light rain showers.
2014-Nov-25 17:20 190 7 5.4 4.0 Light rain showers.
2014-Nov-25 16:50 190 10 5.4 4.0 Light rain showers.
2014-Nov-25 16:20 190 10 5.4 4.0 Light rain showers.
2014-Nov-25 15:50 200 11 5.4 4.0 Light rain showers.
2014-Nov-25 15:20 190 12 5.4 4.0 Light rain showers.
2014-Nov-25 14:50 180 14 5.4 4.0 Light rain.
2014-Nov-25 14:20 180 15 5.4 4.0 Light rain.
2014-Nov-25 13:50 180 13 5.4 4.0 Light rain.
2014-Nov-25 13:20 180 14 5.4 4.0 Light rain.
2014-Nov-25 12:50 180 11 5.4 4.0 Light rain.
2014-Nov-25 12:20 180 12 5.4 4.0 Light rain.
2014-Nov-25 11:50 170 11 5.4 4.0 Light rain.
2014-Nov-25 11:20 170 16 5.4 4.0 Light rain.
2014-Nov-25 10:50 170 13 5.4 4.0 Light rain.
2014-Nov-25 10:20 190 11 5.4 4.0 Light rain.
2014-Nov-25 09:50 190 8 5.4 4.0
2014-Nov-25 09:20 180 11 5.4 5.0
2014-Nov-25 08:50 180 13 5.4 5.0
2014-Nov-25 08:20 190 10 5.4 4.0
2014-Nov-25 07:50 190 7 5.4 5.0
2014-Nov-25 07:20 150 11 5.4 5.0
2014-Nov-25 06:50 150 11 5.4 5.0
2014-Nov-25 06:20 150 11 5.4 5.0
2014-Nov-25 05:50 150 13 5.4 5.0 Showers in the vicinity.
2014-Nov-25 05:20 150 14 5.4 5.0 Showers in the vicinity.
2014-Nov-25 04:50 150 12 5.4 5.0 Light rain.
2014-Nov-25 04:20 140 14 5.4 5.0
2014-Nov-25 03:50 140 14 5.4 5.0
2014-Nov-25 03:20 140 15 5.4 5.0
2014-Nov-25 02:50 140 15 5.4 5.0
2014-Nov-25 01:50 130 17 5.4 5.0
2014-Nov-24 23:50 120 17 5.4 4.0
2014-Nov-24 22:50 120 15 5.4 4.0
2014-Nov-24 21:50 110 13 5.4 4.0
2014-Nov-24 20:50 110 13 5.4 4.0
2014-Nov-24 19:50 110 13 5.4 3.0
2014-Nov-24 18:50 120 12 3.0
2014-Nov-24 17:50 110 18 5.4 3.0
2014-Nov-24 17:20 110 14 3.0
2014-Nov-24 16:50 110 14 3.0
2014-Nov-24 16:20 060 16 3.0
2014-Nov-24 15:50 070 13 5.4 3.0
2014-Nov-24 15:20 090 11 3.0
2014-Nov-24 14:50 090 11 5.4 3.0
2014-Nov-24 14:20 080 13 3.0
2014-Nov-24 13:50 070 15 5.4 3.0
2014-Nov-24 13:20 080 14 3.0
2014-Nov-24 12:50 080 12 5.4 3.0
2014-Nov-24 12:20 070 13 3.0
2014-Nov-24 11:50 070 12 3.0
2014-Nov-24 11:20 070 13 3.0
2014-Nov-24 10:50 070 13 5.4 3.0
2014-Nov-24 10:20 070 14 3.0
2014-Nov-24 09:50 060 14 5.4 2.0
2014-Nov-24 09:20 060 13 -0.0
2014-Nov-24 08:50 -2.0
2014-Nov-24 08:20 210 3 -1.0
2014-Nov-24 07:50 190 6 5.4-2.0
2014-Nov-24 07:20 190 7 -2.0
2014-Nov-24 06:50 180 6 5.4-2.0
2014-Nov-24 06:20 180 8 -2.0